Time,TemperatureF,DewpointF,PressureIn,WindDirection,WindDirectionDegrees,WindSpeedMPH,WindSpeedGustMPH,Humidity,HourlyPrecipIn,Conditions,Clouds,dailyrainin,SoftwareType,DateUTC
2013-03-31 00:02:00,39.5,35.0,30.06,WSW,252,1.0,6.0,83,0.00,,,0.00,weatherlink.com 1.10,2013-03-31 04:02:00,
2013-03-31 00:47:00,39.0,34.0,30.07,SSW,200,0.0,5.0,83,0.00,,,0.00,weatherlink.com 1.10,2013-03-31 04:47:00,
2013-03-31 01:02:00,39.1,34.0,30.07,WSW,246,4.0,4.0,83,0.00,,,0.00,weatherlink.com 1.10,2013-03-31 05:02:00,
2013-03-31 01:17:00,39.2,34.0,30.07,West,276,0.0,4.0,82,0.00,,,0.00,weatherlink.com 1.10,2013-03-31 05:17:00,
2013-03-31 01:32:00,38.9,34.0,30.07,WSW,255,2.0,5.0,83,0.00,,,0.00,weatherlink.com 1.10,2013-03-31 05:32:00,
2013-03-31 01:47:00,38.6,34.0,30.07,West,264,0.0,5.0,82,0.00,,,0.00,weatherlink.com 1.10,2013-03-31 05:47:00,
2013-03-31 02:02:00,38.5,34.0,30.07,West,269,3.0,5.0,83,0.00,,,0.00,weatherlink.com 1.10,2013-03-31 06:02:00,
2013-03-31 02:17:00,38.7,34.0,30.07,West,281,3.0,4.0,82,0.00,,,0.00,weatherlink.com 1.10,2013-03-31 06:17:00,
2013-03-31 02:32:00,38.5,34.0,30.07,NNW,341,0.0,5.0,83,0.00,,,0.00,weatherlink.com 1.10,2013-03-31 06:32:00,
2013-03-31 02:47:00,38.3,34.0,30.07,SSW,195,2.0,5.0,84,0.00,,,0.00,weatherlink.com 1.10,2013-03-31 06:47:00,
2013-03-31 03:02:00,38.3,34.0,30.06,West,259,0.0,4.0,84,0.00,,,0.00,weatherlink.com 1.10,2013-03-31 07:02:00,
2013-03-31 03:17:00,38.2,34.0,30.06,West,277,1.0,5.0,83,0.00,,,0.00,weatherlink.com 1.10,2013-03-31 07:17:00,
2013-03-31 03:32:00,38.1,34.0,30.06,WSW,252,1.0,5.0,84,0.00,,,0.00,weatherlink.com 1.10,2013-03-31 07:32:00,
2013-03-31 03:47:00,37.5,33.0,30.06,West,263,0.0,3.0,84,0.00,,,0.00,weatherlink.com 1.10,2013-03-31 07:47:00,
2013-03-31 04:02:00,37.1,33.0,30.07,SW,231,0.0,2.0,86,0.00,,,0.00,weatherlink.com 1.10,2013-03-31 08:02:00,
2013-03-31 04:17:00,37.1,33.0,30.07,West,269,0.0,4.0,86,0.00,,,0.00,weatherlink.com 1.10,2013-03-31 08:17:00,
2013-03-31 04:32:00,36.9,33.0,30.07,WSW,247,0.0,3.0,86,0.00,,,0.00,weatherlink.com 1.10,2013-03-31 08:32:00,
2013-03-31 04:47:00,36.3,33.0,30.07,SSW,212,1.0,2.0,87,0.00,,,0.00,weatherlink.com 1.10,2013-03-31 08:47:00,
2013-03-31 05:02:00,35.9,33.0,30.08,West,274,2.0,3.0,88,0.00,,,0.00,weatherlink.com 1.10,2013-03-31 09:02:00,
2013-03-31 05:17:00,36.3,33.0,30.08,SSW,211,0.0,2.0,87,0.00,,,0.00,weatherlink.com 1.10,2013-03-31 09:17:00,
2013-03-31 05:32:00,35.4,32.0,30.08,SSW,211,0.0,1.0,88,0.00,,,0.00,weatherlink.com 1.10,2013-03-31 09:32:00,
2013-03-31 05:47:00,34.9,32.0,30.08,SW,235,0.0,1.0,89,0.00,,,0.00,weatherlink.com 1.10,2013-03-31 09:47:00,
2013-03-31 06:02:00,34.1,32.0,30.08,SW,235,0.0,1.0,91,0.00,,,0.00,weatherlink.com 1.10,2013-03-31 10:02:00,
2013-03-31 06:17:00,34.5,33.0,30.08,SW,235,0.0,0.0,92,0.00,,,0.00,weatherlink.com 1.10,2013-03-31 10:17:00,
2013-03-31 06:32:00,34.4,33.0,30.08,SW,235,0.0,1.0,93,0.00,,,0.00,weatherlink.com 1.10,2013-03-31 10:32:00,
2013-03-31 06:47:00,36.3,34.0,30.08,WSW,243,3.0,4.0,90,0.00,,,0.00,weatherlink.com 1.10,2013-03-31 10:47:00,
2013-03-31 07:02:00,38.9,37.0,30.09,SW,232,0.0,6.0,91,0.00,,,0.00,weatherlink.com 1.10,2013-03-31 11:02:00,
2013-03-31 07:17:00,40.6,38.0,30.09,WSW,250,2.0,3.0,90,0.00,,,0.00,weatherlink.com 1.10,2013-03-31 11:17:00,
2013-03-31 07:32:00,42.6,40.0,30.09,WSW,243,1.0,4.0,90,0.00,,,0.00,weatherlink.com 1.10,2013-03-31 11:32:00,
2013-03-31 07:47:00,44.0,41.0,30.09,SW,214,0.0,3.0,88,0.00,,,0.00,weatherlink.com 1.10,2013-03-31 11:47:00,
2013-03-31 08:02:00,45.5,41.0,30.09,SW,221,2.0,4.0,85,0.00,,,0.00,weatherlink.com 1.10,2013-03-31 12:02:00,
2013-03-31 08:17:00,46.6,42.0,30.09,West,264,3.0,5.0,83,0.00,,,0.00,weatherlink.com 1.10,2013-03-31 12:17:00,
2013-03-31 08:33:00,48.0,42.0,30.09,SSW,211,1.0,3.0,81,0.00,,,0.00,weatherlink.com 1.10,2013-03-31 12:33:00,
2013-03-31 08:48:00,48.2,42.0,30.08,SW,226,1.0,6.0,79,0.00,,,0.00,weatherlink.com 1.10,2013-03-31 12:48:00,
2013-03-31 09:03:00,49.0,42.0,30.08,SSW,200,2.0,4.0,77,0.00,,,0.00,weatherlink.com 1.10,2013-03-31 13:03:00,
2013-03-31 09:18:00,48.8,42.0,30.08,SSE,166,2.0,6.0,76,0.00,,,0.00,weatherlink.com 1.10,2013-03-31 13:18:00,
2013-03-31 09:33:00,49.4,41.0,30.08,SW,218,6.0,6.0,72,0.00,,,0.00,weatherlink.com 1.10,2013-03-31 13:33:00,
2013-03-31 09:48:00,48.7,40.0,30.08,SW,226,6.0,9.0,71,0.00,,,0.00,weatherlink.com 1.10,2013-03-31 13:48:00,
2013-03-31 10:03:00,48.8,39.0,30.08,ESE,105,6.0,9.0,70,0.00,,,0.00,weatherlink.com 1.10,2013-03-31 14:03:00,
2013-03-31 10:18:00,49.0,41.0,30.08,SW,214,4.0,9.0,73,0.00,,,0.00,weatherlink.com 1.10,2013-03-31 14:18:00,
2013-03-31 10:33:00,49.9,41.0,30.08,SSW,198,2.0,9.0,72,0.00,,,0.00,weatherlink.com 1.10,2013-03-31 14:33:00,
2013-03-31 10:48:00,49.9,40.0,30.08,SSW,205,3.0,9.0,70,0.00,,,0.00,weatherlink.com 1.10,2013-03-31 14:48:00,
2013-03-31 11:03:00,50.1,42.0,30.08,South,186,3.0,9.0,73,0.00,,,0.00,weatherlink.com 1.10,2013-03-31 15:03:00,
2013-03-31 11:18:00,50.4,42.0,30.08,SSE,156,4.0,8.0,74,0.00,,,0.00,weatherlink.com 1.10,2013-03-31 15:18:00,
2013-03-31 11:33:00,49.3,41.0,30.08,WSW,238,11.0,12.0,73,0.00,,,0.00,weatherlink.com 1.10,2013-03-31 15:33:00,
2013-03-31 11:48:00,49.5,41.0,30.08,SW,225,1.0,10.0,73,0.00,,,0.00,weatherlink.com 1.10,2013-03-31 15:48:00,
2013-03-31 12:03:00,49.6,42.0,30.08,West,267,5.0,18.0,74,0.00,,,0.00,weatherlink.com 1.10,2013-03-31 16:03:00,
2013-03-31 12:18:00,50.4,41.0,30.07,SSW,208,8.0,12.0,69,0.00,,,0.00,weatherlink.com 1.10,2013-03-31 16:18:00,
2013-03-31 12:33:00,50.4,40.0,30.07,SW,224,5.0,13.0,67,0.00,,,0.00,weatherlink.com 1.10,2013-03-31 16:33:00,
2013-03-31 12:48:00,50.1,40.0,30.07,SW,218,4.0,13.0,69,0.00,,,0.00,weatherlink.com 1.10,2013-03-31 16:48:00,
2013-03-31 13:03:00,50.1,41.0,30.06,WSW,253,7.0,16.0,71,0.00,,,0.00,weatherlink.com 1.10,2013-03-31 17:03:00,
2013-03-31 13:18:00,49.5,41.0,30.06,SW,225,0.0,11.0,73,0.00,,,0.00,weatherlink.com 1.10,2013-03-31 17:18:00,
2013-03-31 13:33:00,50.4,42.0,30.06,SW,231,4.0,12.0,72,0.00,,,0.00,weatherlink.com 1.10,2013-03-31 17:33:00,
2013-03-31 13:48:00,50.2,42.0,30.05,WSW,238,3.0,11.0,73,0.00,,,0.00,weatherlink.com 1.10,2013-03-31 17:48:00,
2013-03-31 14:03:00,49.6,42.0,30.04,West,263,5.0,12.0,74,0.00,,,0.00,weatherlink.com 1.10,2013-03-31 18:03:00,
2013-03-31 14:18:00,49.6,42.0,30.04,SSW,211,5.0,15.0,75,0.00,,,0.00,weatherlink.com 1.10,2013-03-31 18:18:00,
2013-03-31 14:33:00,49.6,42.0,30.04,WSW,252,4.0,13.0,76,0.00,,,0.00,weatherlink.com 1.10,2013-03-31 18:33:00,
2013-03-31 14:48:00,49.7,42.0,30.03,SW,221,6.0,11.0,76,0.00,,,0.00,weatherlink.com 1.10,2013-03-31 18:48:00,
2013-03-31 15:03:00,50.2,41.0,30.03,ENE,73,2.0,11.0,72,0.00,,,0.00,weatherlink.com 1.10,2013-03-31 19:03:00,
2013-03-31 15:18:00,51.0,42.0,30.02,SW,233,8.0,9.0,70,0.00,,,0.00,weatherlink.com 1.10,2013-03-31 19:18:00,
2013-03-31 15:33:00,51.0,42.0,30.01,SW,215,3.0,11.0,70,0.00,,,0.00,weatherlink.com 1.10,2013-03-31 19:33:00,
2013-03-31 15:48:00,51.6,42.0,30.01,SE,136,1.0,7.0,71,0.00,,,0.00,weatherlink.com 1.10,2013-03-31 19:48:00,
2013-03-31 16:03:00,50.4,42.0,30.00,WSW,245,4.0,7.0,73,0.00,,,0.00,weatherlink.com 1.10,2013-03-31 20:03:00,
2013-03-31 16:18:00,49.9,42.0,30.00,South,180,7.0,8.0,75,0.00,,,0.00,weatherlink.com 1.10,2013-03-31 20:18:00,
2013-03-31 16:34:00,49.6,42.0,29.99,South,174,5.0,8.0,76,0.00,,,0.00,weatherlink.com 1.10,2013-03-31 20:34:00,
2013-03-31 16:48:00,48.9,42.0,29.99,South,181,5.0,7.0,77,0.00,,,0.00,weatherlink.com 1.10,2013-03-31 20:48:00,
2013-03-31 17:03:00,48.1,42.0,29.99,South,191,6.0,10.0,80,0.00,,,0.00,weatherlink.com 1.10,2013-03-31 21:03:00,
2013-03-31 17:18:00,47.0,42.0,29.98,SSE,167,4.0,9.0,84,0.00,,,0.00,weatherlink.com 1.10,2013-03-31 21:18:00,
2013-03-31 17:34:00,46.7,42.0,29.98,SE,141,3.0,8.0,84,0.00,,,0.00,weatherlink.com 1.10,2013-03-31 21:34:00,
2013-03-31 17:49:00,46.3,42.0,29.97,SE,139,5.0,8.0,85,0.00,,,0.00,weatherlink.com 1.10,2013-03-31 21:49:00,
2013-03-31 18:04:00,46.1,42.0,29.97,SSE,156,2.0,7.0,85,0.00,,,0.00,weatherlink.com 1.10,2013-03-31 22:04:00,
2013-03-31 18:19:00,46.1,42.0,29.97,SE,136,3.0,9.0,84,0.00,,,0.00,weatherlink.com 1.10,2013-03-31 22:19:00,
2013-03-31 18:34:00,46.1,42.0,29.96,SE,139,8.0,9.0,85,0.00,,,0.00,weatherlink.com 1.10,2013-03-31 22:34:00,
2013-03-31 18:49:00,45.9,42.0,29.95,South,169,6.0,10.0,86,0.00,,,0.00,weatherlink.com 1.10,2013-03-31 22:49:00,
2013-03-31 19:04:00,45.9,42.0,29.95,South,190,7.0,9.0,85,0.00,,,0.00,weatherlink.com 1.10,2013-03-31 23:04:00,
2013-03-31 19:19:00,46.0,41.0,29.94,SE,144,5.0,10.0,84,0.00,,,0.00,weatherlink.com 1.10,2013-03-31 23:19:00,
2013-03-31 19:34:00,46.0,41.0,29.94,South,173,7.0,12.0,82,0.00,,,0.00,weatherlink.com 1.10,2013-03-31 23:34:00,
2013-03-31 19:49:00,46.2,40.0,29.93,South,183,8.0,11.0,80,0.00,,,0.00,weatherlink.com 1.10,2013-03-31 23:49:00,
2013-03-31 20:04:00,46.5,40.0,29.92,SSE,159,5.0,12.0,79,0.00,,,0.00,weatherlink.com 1.10,2013-04-01 00:04:00,
2013-03-31 20:19:00,46.7,40.0,29.91,SSE,151,6.0,15.0,77,0.00,,,0.00,weatherlink.com 1.10,2013-04-01 00:19:00,
2013-03-31 20:34:00,46.9,40.0,29.90,SSE,162,7.0,15.0,78,0.00,,,0.00,weatherlink.com 1.10,2013-04-01 00:34:00,
2013-03-31 20:49:00,46.9,40.0,29.89,South,186,10.0,17.0,78,0.00,,,0.00,weatherlink.com 1.10,2013-04-01 00:49:00,
2013-03-31 21:04:00,46.8,41.0,29.88,South,191,10.0,20.0,79,0.00,,,0.00,weatherlink.com 1.10,2013-04-01 01:04:00,
2013-03-31 21:19:00,47.0,41.0,29.87,SSE,162,17.0,23.0,79,0.00,,,0.00,weatherlink.com 1.10,2013-04-01 01:19:00,
2013-03-31 21:34:00,46.8,41.0,29.87,South,176,13.0,24.0,81,0.00,,,0.00,weatherlink.com 1.10,2013-04-01 01:34:00,
2013-03-31 21:49:00,46.9,41.0,29.85,SE,129,13.0,21.0,81,0.00,,,0.00,weatherlink.com 1.10,2013-04-01 01:49:00,
2013-03-31 22:04:00,46.7,42.0,29.83,SE,142,21.0,27.0,84,0.00,,,0.00,weatherlink.com 1.10,2013-04-01 02:04:00,
2013-03-31 22:19:00,45.9,43.0,29.82,SSE,148,16.0,25.0,88,0.01,,,0.01,weatherlink.com 1.10,2013-04-01 02:19:00,
2013-03-31 22:35:00,45.7,43.0,29.80,ESE,121,15.0,26.0,90,0.03,,,0.03,weatherlink.com 1.10,2013-04-01 02:35:00,
2013-03-31 22:50:00,45.5,43.0,29.78,South,169,13.0,25.0,91,0.03,,,0.03,weatherlink.com 1.10,2013-04-01 02:50:00,
2013-03-31 23:05:00,45.6,44.0,29.76,SE,129,17.0,28.0,92,0.03,,,0.03,weatherlink.com 1.10,2013-04-01 03:05:00,
2013-03-31 23:20:00,45.6,44.0,29.74,SSE,158,18.0,27.0,93,0.01,,,0.03,weatherlink.com 1.10,2013-04-01 03:20:00,
2013-03-31 23:35:00,45.7,44.0,29.72,SSE,150,16.0,25.0,94,0.00,,,0.03,weatherlink.com 1.10,2013-04-01 03:35:00,
2013-03-31 23:50:00,45.9,44.0,29.70,SE,135,18.0,28.0,94,0.00,,,0.03,weatherlink.com 1.10,2013-04-01 03:50:00,